User: anonymous   Login
Location: Unspecified
(0.0000°N, 0.0000°E)
Time: 18:05:42
(UTC+00:00)
Language:

TBA - TO BE ASSIGNED - Orbit

View from above orbital plane
View from above orbital plane
View from above satellite
View from above satellite

Ground track
Ground track

The orbit is defined by the following mean orbital elements,

1 67357U          26145.45265941 +.00000000 +00000-0 +26705-3 0 00008
2 67357  43.0004 153.5610 0001445 275.4176  84.6510 15.27585690    00
Epoch (UTC): 25 May 2026 10:51:49
Eccentricity: 0.0001445
inclination: 43.0004°
perigee height: 482 km
apogee height: 484 km
right ascension of ascending node: 153.5610°
argument of perigee: 275.4176°
revolutions per day: 15.27585690
mean anomaly at epoch: 84.6510°

The dashed part of the orbit path shows where the satellite is in the earth's shadow,  

DLR